This is the latest recevied weather packets stored in our database for station/object KD5HIA. If no packets are shown the sender has not sent any weather packets the latest 10 day(s).
| Time | Temp. | Humidity | Pressure | Rain* | Wind** | Luminosity | Snow |
|---|---|---|---|---|---|---|---|
| 1778024417 | 32.22° C | 25% | 1005.9 hPa | 0 mm | - | 140 W/m² | - |
| 1778023816 | 32.22° C | 25% | 1006 hPa | 0 mm | - | 210 W/m² | - |
| 1778023217 | 32.22° C | 25% | 1006 hPa | 0 mm | - | 164 W/m² | - |
| 1778022617 | 32.22° C | 24% | 1006 hPa | 0 mm | - | 175 W/m² | - |
| 1778022017 | 32.78° C | 24% | 1006 hPa | 0 mm | - | 253 W/m² | - |
| 1778021417 | 32.78° C | 23% | 1006.2 hPa | 0 mm | - | 249 W/m² | - |
| 1778020817 | 32.22° C | 25% | 1006.3 hPa | 0 mm | - | 297 W/m² | - |
| 1778020217 | 32.78° C | 24% | 1006.2 hPa | 0 mm | - | 301 W/m² | - |
| 1778019616 | 32.78° C | 24% | 1006.3 hPa | 0 mm | - | 253 W/m² | - |
| 1778019016 | 32.78° C | 23% | 1006.3 hPa | 0 mm | - | 340 W/m² | - |
| 1778018417 | 32.78° C | 23% | 1006.4 hPa | 0 mm | - | 443 W/m² | - |
| 1778017816 | 33.33° C | 23% | 1006.3 hPa | 0 mm | - | 370 W/m² | - |
| 1778017217 | 33.33° C | 24% | 1006.3 hPa | 0 mm | - | 441 W/m² | - |
| 1778016617 | 33.33° C | 24% | 1006.4 hPa | 0 mm | - | 509 W/m² | - |
| 1778016017 | 33.33° C | 24% | 1006.5 hPa | 0 mm | - | 608 W/m² | - |
| 1778015417 | 33.89° C | 27% | 1006.7 hPa | 0 mm | - | 514 W/m² | - |
| 1778014817 | 33.89° C | 27% | 1006.8 hPa | 0 mm | - | 671 W/m² | - |
| 1778014217 | 33.33° C | 27% | 1006.9 hPa | 0 mm | - | 484 W/m² | - |
| 1778013617 | 33.89° C | 27% | 1007 hPa | 0 mm | - | 750 W/m² | - |
| 1778013017 | 33.33° C | 27% | 1007 hPa | 0 mm | - | 554 W/m² | - |
| 1778012417 | 33.33° C | 25% | 1007 hPa | 0 mm | - | 710 W/m² | - |
| 1778011816 | 32.78° C | 26% | 1007 hPa | 0 mm | - | 552 W/m² | - |
| 1778011217 | 32.78° C | 26% | 1007.2 hPa | 0 mm | - | 699 W/m² | - |
| 1778010617 | 32.78° C | 27% | 1007.3 hPa | 0 mm | - | 670 W/m² | - |
| 1778010017 | 32.78° C | 28% | 1007.4 hPa | 0 mm | - | 618 W/m² | - |
* Rain latest hour (hover to see other rain measurements)
** Current wind speed in m/s (hover to see current wind gust speed)